Regional Weather Roundup
Issued by NWS

Home | Current Version | Previous Version | Text Only | Print | Product List | Glossary Off
Versions: 1 2 3 4 5 6 7 8 9 10 11 12 13 14 15 16 17 18 19 20 21 22 23 24 25 26 27 28 29 30 31 32 33 34 35 36 37 38 39 40 41 42 43 44 45 46 47 48 49 50

000
ASUS43 KLOT 210306
RWRIL

ILLINOIS REGIONAL WEATHER ROUNDUP
NATIONAL WEATHER SERVICE CHICAGO/ROMEOVILLE IL
1000 PM CDT SAT SEP 20 2014

NOTE: "FAIR" INDICATES FEW OR NO CLOUDS BELOW 12,000 FEET WITH NO
SIGNIFICANT WEATHER AND/OR OBSTRUCTIONS TO VISIBILITY.

* THESE STATIONS ARE NOT UNDER NWS QUALITY CONTROL. THEY ALSO MAY NOT
  REPORT WEATHER SUCH AS PRECIPITATION OR FOG.

ILZ001-002-007-009-015-016-024-210400-
NORTHWEST ILLINOIS

CITY           SKY/WX    TMP DP  RH WIND       PRES   REMARKS
MOLINE         CLEAR     70  66  87 W8        29.80S
STERLING*      PTCLDY    66  63  88 W3        29.77F
SAVANNA*       CLEAR     71  65  82 SW9       29.75F
$$

ILZ003-004-008-010-011-017-018-210400-
NORTH CENTRAL ILLINOIS

CITY           SKY/WX    TMP DP  RH WIND       PRES   REMARKS
ROCKFORD       PTCLDY    67  63  87 SW6       29.77F
FREEPORT*      CLEAR     68  65  92 SW10      29.78F
ROCHELLE*      PTCLDY    67  65  91 SW9       29.78F
DE KALB*       MOCLDY    63  61  95 SW8       29.78F FOG
PERU*          PTCLDY    69  67  93 SW7       29.80S FOG
$$

ILZ005-006-012>014-019>023-210400-
NORTHEAST ILLINOIS

CITY           SKY/WX    TMP DP  RH WIND       PRES   REMARKS
CHICAGO-OHARE  PTCLDY    69  63  81 SW3       29.77F
CHICAGO-MIDWAY PTCLDY    71  67  87 SW6       29.77F
AURORA         CLOUDY    69  66  90 SW6       29.78F FOG
LANSING*       CLEAR     66  65  98 CALM      29.79F FOG
JOLIET*          N/A     65  64  96 CALM      29.79F FOG
WAUKEGAN       CLEAR     65  61  87 SW8       29.74F
DUPAGE AIRPORT CLOUDY    69  66  90 SW7       29.77F
KANKAKEE*      MOCLDY    68  67  96 S7        29.81F
WHEELING       PTCLDY    70  65  84 SW6       29.77F
MORRIS*        PTCLDY    68  68 100 SW5       29.79S FOG
ROMEOVILLE*    PTCLDY    68  67  98 SW6       29.79S
NORTHERLY ISL    N/A     71  65  81 SW5         N/A
$$

LMZ740>746-210400-
SOUTHERN LAKE MICHIGAN

STATION/POSITION SKY/WX   TEMP    WIND        PRES    VSBY  WAVE
                          AIR SEA DIR/SP/G                  HT/PER
                          (F)     (DEG/KT/KT) (MB)    (MI)  (FT/S)
SOUTHERN BUOY              66 63  210/ 14/ 16 1006.8F         1/ 3
WAUKEGAN HARBOR            69     230/ 11/ 14   N/A
HARRISON CRIB              73     230/ 15/ 20   N/A
BURNHAM HARBOR             71     220/  4/  7   N/A
CALUMET HARBOR             69     200/  4/  5 1007.3F
MICHIGAN CITY              69     170/ 11/ 14   N/A
MICHIGAN CITY 6N           67 65  210/  8/ 10   N/A           1/ 2
ST. JOSEPH                 67 65  170/  8/ 12   N/A           2/ 3
$$

ILZ025>027-034>036-040-047-049-050-058-095>099-210400-
WEST-CENTRAL ILLINOIS

CITY           SKY/WX    TMP DP  RH WIND       PRES   REMARKS
QUINCY         MOCLDY    74  70  87 W9        29.89R
GALESBURG*     CLEAR     72  67  86 SW13      29.84R
MACOMB*        CLEAR     69  68  95 W6        29.88R FOG
JACKSONVILLE*  LGT RAIN  75  70  86 SW6       29.89S
PITTSFIELD*    PTCLDY    76  68  78 SW8       29.90R
$$

ILZ028>032-037-038-041>044-048-051>054-059>061-210400-
CENTRAL ILLINOIS

CITY           SKY/WX    TMP DP  RH WIND       PRES   REMARKS
PONTIAC        PTCLDY    70  68  94 CALM      29.82R FOG
DECATUR        PTCLDY    73  68  84 SW12      29.87S
PEORIA         CLEAR     74  67  78 W8        29.84R
LACON*         CLEAR     68  65  90 SW5       29.80S
LINCOLN*       TSTM      73  70  91 W9        29.84R
SPRINGFIELD    LGT RAIN  75  69  81 SW8       29.88R
TAYLORVILLE    PTCLDY    72  68  88 SW8       29.88R
$$

ILZ033-039-045-046-055>057-062-063-210400-
EAST-CENTRAL ILLINOIS

CITY           SKY/WX    TMP DP  RH WIND       PRES   REMARKS
CHAMPAIGN      MOCLDY    72  69  90 S8        29.86S
DANVILLE*      HVY RAIN  69  66  93 SW8       29.82F
RANTOUL*       PTCLDY    72  68  88 SW5       29.85S FOG
MATTOON        CLEAR     73  68  84 S9        29.87F
PARIS*         CLEAR     69  68  98 S5        29.87F
$$

ILZ079-100>102-210400-
SOUTHWEST ILLINOIS

CITY           SKY/WX    TMP DP  RH WIND       PRES   REMARKS
BELLEVILLE     CLEAR     70  67  88 SE1       29.93R
CAHOKIA*       CLEAR     77  67  71 SW5       29.92S
SPARTA*        CLEAR     74  68  80 S7        29.95F
$$

ILZ064>066-069>071-074>076-080>082-084>086-088>090-092>094-210400-
SOUTH-CENTRAL ILLINOIS

CITY           SKY/WX    TMP DP  RH WIND       PRES   REMARKS
CARBONDALE     CLEAR     70  66  87 S5        29.96S
CAIRO*         CLEAR     71  66  84 CALM      29.98S
EFFINGHAM*     CLEAR     73  66  77 S6        29.90F
MARION         CLEAR     72  68  88 S7        29.97S
MT. VERNON     CLEAR     72  64  78 SW6       29.94F
CENTRALIA*     CLEAR     73  65  74 SW9       29.93S
SALEM*         CLEAR     75  69  81 SW8       29.93S
METROPOLIS*    CLEAR     72  68  88 CALM      29.98S
$$

ILZ067-068-072-073-078-083-087-091-210400-
SOUTHEAST ILLINOIS

CITY           SKY/WX    TMP DP  RH WIND       PRES   REMARKS
LAWRENCEVILLE  PTCLDY    70  66  87 S7        29.91F
FLORA*         PTCLDY    71  67  87 S6        29.92F
FAIRFIELD*     CLEAR    N/A N/A N/A S6        29.93F
HARRISBURG*    CLEAR     70  68  95 CALM      29.97F
ROBINSON*      PTCLDY    73  69  87 S7        29.91F
CARMI*         CLEAR     72  69  89 S6        29.94F
$$

ABBREVIATIONS USED IN REMARKS
   TC - TEMPERATURE IN CELSIUS
  WCI - WIND CHILL INDEX
   HX - HEAT INDEX
  VSB - VISIBILITY
$$




USA.gov is the U.S. government's official web portal to all federal, state and local government web resources and services.